Time,TemperatureF,DewpointF,PressureIn,WindDirection,WindDirectionDegrees,WindSpeedMPH,WindSpeedGustMPH,Humidity,HourlyPrecipIn,Conditions,Clouds,dailyrainin,SolarRadiationWatts/m^2,SoftwareType,DateUTC
2013-06-23 01:00:00,53.0,49.0,-100.00,WNW,290,0.0,3.0,86,-99.99,,,-99.99,-0.200000,,2013-06-23 08:00:00,
2013-06-23 02:00:00,53.0,49.0,-100.00,WNW,290,0.0,0.0,85,-99.99,,,-99.99,-0.700000,,2013-06-23 09:00:00,
2013-06-23 03:00:00,52.0,48.0,-100.00,SSE,167,0.0,1.0,88,-99.99,,,-99.99,-0.200000,,2013-06-23 10:00:00,
2013-06-23 04:00:00,51.0,49.0,-100.00,SSE,160,0.0,1.0,93,-99.99,,,-99.99,-0.200000,,2013-06-23 11:00:00,
2013-06-23 05:00:00,51.0,50.0,-100.00,SSE,157,0.0,1.0,96,-99.99,,,-99.99,-0.200000,,2013-06-23 12:00:00,
2013-06-23 06:00:00,51.0,50.0,-100.00,NNE,25,0.0,2.0,96,-99.99,,,-99.99,9.500000,,2013-06-23 13:00:00,
2013-06-23 07:00:00,52.0,51.0,-100.00,North,9,0.0,2.0,96,-99.99,,,-99.99,69.699997,,2013-06-23 14:00:00,
2013-06-23 08:00:00,52.0,52.0,-100.00,NNE,20,1.0,2.0,97,-99.99,,,-99.99,134.699997,,2013-06-23 15:00:00,
2013-06-23 09:00:00,52.0,52.0,-100.00,NE,35,1.0,2.0,98,-99.99,,,-99.99,144.000000,,2013-06-23 16:00:00,
2013-06-23 09:53:00,52.0,52.0,-100.00,NE,35,1.0,2.0,98,-99.99,,,-99.99,144.000000,,2013-06-23 16:53:00,
2013-06-23 10:00:00,54.0,53.0,-100.00,ESE,113,1.0,2.0,98,-99.99,,,-99.99,253.899994,,2013-06-23 17:00:00,
2013-06-23 10:53:00,54.0,53.0,-100.00,ESE,113,1.0,2.0,98,-99.99,,,-99.99,253.899994,,2013-06-23 17:53:00,
2013-06-23 11:00:00,53.0,52.0,-100.00,South,181,0.0,2.0,97,-99.99,,,-99.99,157.600006,,2013-06-23 18:00:00,
2013-06-23 11:53:00,53.0,52.0,-100.00,South,181,0.0,2.0,97,-99.99,,,-99.99,157.600006,,2013-06-23 18:53:00,
2013-06-23 12:00:00,54.0,53.0,-100.00,NNW,346,1.0,2.0,95,-99.99,,,0.00,199.300003,,2013-06-23 19:00:00,
2013-06-23 13:00:00,54.0,51.0,-100.00,NW,318,1.0,2.0,90,-99.99,,,0.01,237.100006,,2013-06-23 20:00:00,
2013-06-23 13:53:00,54.0,51.0,-100.00,NW,318,1.0,2.0,90,-99.99,,,0.01,237.100006,,2013-06-23 20:53:00,
2013-06-23 14:00:00,55.0,53.0,-100.00,WNW,290,1.0,4.0,92,-99.99,,,0.00,308.399994,,2013-06-23 21:00:00,
2013-06-23 14:52:00,55.0,53.0,-100.00,WNW,290,1.0,4.0,92,-99.99,,,0.00,308.399994,,2013-06-23 21:52:00,
2013-06-23 15:00:00,52.0,50.0,-100.00,North,0,1.0,3.0,95,-99.99,,,0.01,126.800003,,2013-06-23 22:00:00,
2013-06-23 17:00:00,53.0,53.0,-100.00,SE,144,1.0,2.0,99,-99.99,,,0.01,175.199997,,2013-06-24 00:00:00,
2013-06-23 18:00:00,53.0,52.0,-100.00,SSW,211,1.0,2.0,99,-99.99,,,0.01,84.199997,,2013-06-24 01:00:00,
2013-06-23 18:53:00,53.0,52.0,-100.00,SSW,211,1.0,2.0,99,-99.99,,,0.01,84.199997,,2013-06-24 01:53:00,
2013-06-23 19:00:00,52.0,52.0,-100.00,North,11,0.0,1.0,100,-99.99,,,0.02,84.199997,,2013-06-24 02:00:00,
2013-06-23 20:00:00,52.0,52.0,-100.00,NNE,27,1.0,2.0,99,-99.99,,,0.02,71.900002,,2013-06-24 03:00:00,
2013-06-23 21:00:00,50.0,50.0,-100.00,SW,233,0.0,2.0,99,-99.99,,,0.01,12.100000,,2013-06-24 04:00:00,
2013-06-23 21:53:00,50.0,50.0,-100.00,SW,233,0.0,2.0,99,-99.99,,,0.01,12.100000,,2013-06-24 04:53:00,
2013-06-23 23:00:00,50.0,50.0,-100.00,South,178,1.0,2.0,101,-99.99,,,0.01,-0.200000,,2013-06-24 06:00:00,
2013-06-23 23:56:00,50.0,50.0,-100.00,South,178,1.0,2.0,101,-99.99,,,0.01,-0.200000,,2013-06-24 06:56:00,